TimeCST,TemperatureF,Dew PointF,Humidity,Sea Level PressureIn,VisibilityMPH,Wind Direction,Wind SpeedMPH,Gust SpeedMPH,PrecipitationIn,Events,Conditions,WindDirDegrees,DateUTC
12:53 AM,48.0,44.1,86,30.18,-9999.0,SSE,4.6,-,N/A,,Clear,160,2013-01-23 06:53:00
1:53 AM,46.0,43.0,89,30.18,-9999.0,SSE,4.6,-,N/A,,Clear,150,2013-01-23 07:53:00
2:53 AM,46.0,44.1,93,30.18,-9999.0,SSE,6.9,-,N/A,,Clear,160,2013-01-23 08:53:00
3:53 AM,46.0,44.1,93,30.18,-9999.0,SE,8.1,-,N/A,,Clear,140,2013-01-23 09:53:00
4:53 AM,45.0,43.0,93,30.20,-9999.0,SE,8.1,-,N/A,,Clear,140,2013-01-23 10:53:00
5:53 AM,43.0,42.1,97,30.21,-9999.0,SSE,3.5,-,N/A,,Clear,160,2013-01-23 11:53:00
6:53 AM,43.0,42.1,97,30.22,-9999.0,SE,6.9,-,N/A,,Clear,140,2013-01-23 12:53:00
7:53 AM,45.0,44.1,97,30.21,-9999.0,SE,6.9,-,N/A,,Clear,140,2013-01-23 13:53:00
8:53 AM,50.0,46.9,89,30.23,-9999.0,ESE,4.6,-,N/A,,Clear,120,2013-01-23 14:53:00
9:53 AM,55.0,48.0,77,30.25,-9999.0,SE,4.6,-,N/A,,Clear,140,2013-01-23 15:53:00
10:53 AM,60.1,48.0,64,30.24,-9999.0,South,6.9,-,N/A,,Clear,170,2013-01-23 16:53:00
11:53 AM,66.0,50.0,56,30.21,-9999.0,SSW,6.9,-,N/A,,Clear,210,2013-01-23 17:53:00
12:53 PM,70.0,51.1,51,30.17,-9999.0,Variable,6.9,16.1,N/A,,Clear,0,2013-01-23 18:53:00
1:53 PM,73.0,50.0,44,30.14,-9999.0,SSW,4.6,-,N/A,,Clear,210,2013-01-23 19:53:00
2:53 PM,73.9,50.0,43,30.12,-9999.0,South,6.9,-,N/A,,Clear,170,2013-01-23 20:53:00
3:53 PM,75.9,50.0,40,30.11,-9999.0,South,12.7,21.9,N/A,,Clear,170,2013-01-23 21:53:00
4:53 PM,73.9,48.0,40,30.09,-9999.0,South,11.5,-,N/A,,Clear,180,2013-01-23 22:53:00
5:53 PM,68.0,48.9,50,30.11,-9999.0,SSE,5.8,-,N/A,,Clear,160,2013-01-23 23:53:00
6:53 PM,64.0,48.9,58,30.10,-9999.0,South,6.9,-,N/A,,Clear,170,2013-01-24 00:53:00
7:53 PM,63.0,50.0,63,30.10,-9999.0,SSE,9.2,-,N/A,,Clear,160,2013-01-24 01:53:00
8:53 PM,62.1,51.1,67,30.10,-9999.0,SSE,11.5,-,N/A,,Clear,160,2013-01-24 02:53:00
9:53 PM,57.0,50.0,77,30.13,-9999.0,East,5.8,-,N/A,,Clear,100,2013-01-24 03:53:00
10:53 PM,57.0,51.1,81,30.12,-9999.0,SSE,8.1,-,N/A,,Clear,150,2013-01-24 04:53:00
11:53 PM,55.9,51.1,84,30.11,-9999.0,SE,9.2,-,N/A,,Clear,140,2013-01-24 05:53:00